Regional Weather Roundup
Issued by NWS Charleston, SC

Current Version | Previous Version | Graphics & Text | Print | Product List | Glossary On
Versions: 1 2 3 4 5 6 7 8 9 10 11 12 13 14 15 16 17 18 19 20 21 22 23 24 25 26 27 28 29 30 31 32 33 34 35 36 37 38 39 40 41 42 43 44 45 46 47 48 49 50
000
ASUS42 KCHS 231227
RWRCHS

REGIONAL WEATHER ROUNDUP
NATIONAL WEATHER SERVICE CHARLESTON SC
800 AM EDT SUN APR 23 2017

NOTE: "FAIR" INDICATES FEW OR NO CLOUDS BELOW 12,000 FEET WITH NO
SIGNIFICANT WEATHER AND/OR OBSTRUCTIONS TO VISIBILITY.

NOT ALL STATIONS ARE QUALITY CONTROLLED. USE DATA WITH CAUTION...
ESPECIALLY DEWPOINT OBSERVATIONS.

SCZ027-030-031-034>040-042>050-231300-
...SOUTHEAST SOUTH CAROLINA...

CITY           SKY/WX    TMP DP  RH WIND       PRES   REMARKS
N CHARLESTON   MOSUNNY   73  68  84 S9        29.87R
6HR MIN TEMP:  70; 6HR MAX TEMP:  73;

WATERFRONT PRK   N/A     72  71  97 S7        29.86R
JOHNS ISLAND   CLOUDY    73  70  88 SW9       29.88S
PINOPOLIS        N/A     72  70  94 S5        29.78R
MONCKS CORNER  FAIR      70  66  88 S3        29.88R
SUMMERVILLE    FAIR      72  68  88 S7        29.88S
BEAUFORT MCAS  SUNNY     74  71  91 S7        29.86S
6HR MIN TEMP:  71; 6HR MAX TEMP:  74;

BEAUFORT ARPT  FAIR      73  68  83 S7        29.86S HAZE
HILTON HEAD IS CLOUDY    73  72  94 S12G18    29.86S
WALTERBORO     SUNNY     70  68  94 S5        29.88S
ALLENDALE      FAIR      68  66  94 CALM      29.86R FOG

...SOUTHERN MIDLANDS AND PEE DEE...

CITY           SKY/WX    TMP DP  RH WIND       PRES   REMARKS
GEORGETOWN     PTSUNNY   72  70  94 CALM      29.90R
KINGSTREE      CLOUDY    68  63  83 NE3       29.90R
ORANGEBURG     CLOUDY    66  64  93 CALM      29.88R
6HR MIN TEMP:  63; 6HR MAX TEMP:  67;

BARNWELL       FAIR      70  66  88 CALM      29.87R
AIKEN          FAIR      63  59  88 NE9       29.90S
MANNING        CLOUDY    70  64  83 NE14G20   29.89R
COLUMBIA       CLOUDY    65  58  78 NE8       29.88R
6HR MIN TEMP:  65; 6HR MAX TEMP:  73;

SUMTER         CLOUDY    65  60  85 NE12      29.88R
6HR MIN TEMP:  64; 6HR MAX TEMP:  70;

FLORENCE       CLOUDY    62  60  93 NE10      29.92R
6HR MIN TEMP:  62; 6HR MAX TEMP:  71;

MYRTLE BEACH   LGT RAIN  72  68  88 NW5       29.89S
N MYRTLE BEACH LGT RAIN  67  65  93 N7        29.91R
6HR MIN TEMP:  67; 6HR MAX TEMP:  71; 6HR PCP: TRACE;


$$

GAZ063-065-086>088-099>101-113>116-118-119-134>141-150-231300-
...SOUTHEAST GEORGIA...

CITY           SKY/WX    TMP DP  RH WIND       PRES   REMARKS
SAVANNAH ARPT  MOSUNNY   70  66  87 S7        29.87R
6HR MIN TEMP:  68; 6HR MAX TEMP:  71;

HUNTER AAF     SUNNY     72  72 100 S6        29.84R
6HR MIN TEMP:  70; 6HR MAX TEMP:  72;

FORT STEWART   SUNNY     67  65  94 S3        29.85R
6HR MIN TEMP:  65; 6HR MAX TEMP:  67;

STATESBORO     SUNNY     70  67  93 CALM      29.87S
SYLVANIA       SUNNY     70  66  88 SW5       29.87S
CLAXTON        FAIR     N/A N/A N/A CALM      29.87S

...CSRA...CENTRAL AND FAR SOUTHEAST GEORGIA...

CITY           SKY/WX    TMP DP  RH WIND       PRES   REMARKS
THOMSON        PTSUNNY   65  59  83 SE8       29.91R
AUGUSTA-BUSH   MOSUNNY   68  61  78 N3        29.85R
6HR MIN TEMP:  64; 6HR MAX TEMP:  71;

AUGUSTA-DANIEL MOSUNNY   67  58  72 NE8       29.87R
SWAINSBORO     FAIR      66  63  88 CALM      29.87S
VIDALIA        PTSUNNY   66  63  88 CALM      29.87S
EASTMAN        FAIR      66  55  67 CALM      29.88F
HAZLEHURST     FAIR      68  65  91 SW5       29.86S
ALMA           SUNNY     64  63  96 CALM      29.87R
6HR MIN TEMP:  62; 6HR MAX TEMP:  65;

WAYCROSS       SUNNY     69  69  98 SW5       29.88S
JESUP          FAIR      64  61  88 CALM      29.88S
BAXLEY         CLOUDY    66  66 100 CALM      29.87R
BRUNSWICK      MOSUNNY   72  68  88 CALM      29.88S
SAINT SIMONS   MOSUNNY   71  66  84 W6        29.87R
6HR MIN TEMP:  69; 6HR MAX TEMP:  74;


$$

SCZ027-028-034-036>038-045-046-048>050-GAZ119-141-231300-
...LAKE AND SUPPLEMENTAL COASTAL OBSERVATIONS...

STATION/POSITION TIME  TEMP    WIND        PRES    WAVE   SWELL
                       AIR SEA DIR/SP/G            HT/PER HT/PER/DIR
                 (UTC) (F)     (DEG/KT/KT) (MB)    (FT/S) (FT/S/D)
WINYAH BAY       1130   72     260/  4     1012.0R
LAKE MURRAY      1220   61      40/  7/ 10 1011.9
ACE BASIN NERRS  1145   73        CALM     1011.0S
FORT PULASKI     1200   73 74  210/  7/ 12 1011.7
SAPELO ISLAND    1145   71     220/  7     1012.0R

$$

ANZ835-935-AMZ111-154-330-350-352-354-370-450-454-472-231300-
...C-MAN AND BUOY OBSERVATIONS...

STATION/POSITION TIME  TEMP    WIND        PRES    WAVE   SWELL
                       AIR SEA DIR/SP/G            HT/PER HT/PER/DIR
                 (UTC) (F)     (DEG/KT/KT) (MB)    (FT/S) (FT/S/D)
BUOY 41004       1210   75 74  200/ 12/ 14 1012.1
BUOY 41008       1150   72 71  210/  8/ 10 1011.2R   3/ 6   3/150/ 6
FOLLY BEACH CMAN 1200   73     200/ 10/ 11 1012.4R
CAPERS NEARSHORE 1208   72 71  210/  8/ 12 1011.8R
FRIPP NEARSHORE  1208   72 71  220/ 12/ 14 1011.4R


STATION/POSITION TIME  TEMP    WIND        PRES    WAVE   SWELL
                       AIR SEA DIR/SP/G            HT/PER HT/PER/DIR
                 (UTC) (F)     (DEG/KT/KT) (MB)    (FT/S) (FT/S/D)
5E ST. MARYS GA  1200      72                N/A     3/ 5   2/110/12
FRYING PAN BUOY  1210   74 73  190/ 10/ 14 1013.0
BUOY 41025       1150   63 75   10/ 19/ 21 1014.2R   5/12   2/ 70/12
CAPE LOOKOUT NC  1200   62      40/ 20/ 22 1015.0R
BUOY 41002       1150   72 74  210/ 10/ 12 1015.4R   5/12   3/ 40/12
BUOY 41010       1210   75 78  150/ 10/ 12 1012.8
ST AUGUSTINE FL  1200   72 74  180/  4/  5 1012.9R


$$




USA.gov is the U.S. government's official web portal to all federal, state and local government web resources and services.